CCA6688 ZSPD-ZJSY

Flight info

Callsign CCA6688
Flight time N/A
Altitude 34100
Route NXD W131 AKDIM A470 DUBGO W134 ELNEX A599 PLT W19 NOMAR W18 NLG W23 ZUH R200 BIGRO G221 UPRIS
Aircraft A35K/H-SDE2E3GHIJ3J4J5LM1ORWXY/LB1D1

Departure

Time N/A
Airport Shanghai Pudong International Airport (ZSPD)

Arrival

Time 2026-04-29 14:33
Airport Sanya Phoenix International Airport (ZJSY)
Time Latitude Longitude Altitude Speed Heading
2026-04-29 13:53 19.66635 109.96849 25108 ft 463 kts 206°
2026-04-29 13:53 19.63707 109.95439 24889 ft 461 kts 206°
2026-04-29 13:53 19.60785 109.94034 24662 ft 459 kts 206°
2026-04-29 13:54 19.57875 109.92634 24444 ft 458 kts 207°
2026-04-29 13:54 19.54985 109.91244 24224 ft 456 kts 207°
2026-04-29 13:54 19.52101 109.89859 24003 ft 454 kts 207°
2026-04-29 13:54 19.49225 109.88476 23786 ft 453 kts 207°
2026-04-29 13:55 19.46368 109.87105 23569 ft 451 kts 207°
2026-04-29 13:55 19.43510 109.85733 23309 ft 449 kts 207°
2026-04-29 13:55 19.40668 109.84369 23052 ft 447 kts 207°
2026-04-29 13:55 19.37846 109.83015 22795 ft 446 kts 207°
2026-04-29 13:56 19.35014 109.81664 22541 ft 444 kts 207°
2026-04-29 13:56 19.32198 109.80331 22284 ft 443 kts 207°
2026-04-29 13:56 19.29395 109.79004 22042 ft 441 kts 207°
2026-04-29 13:56 19.26585 109.77673 21801 ft 440 kts 207°
2026-04-29 13:57 19.23805 109.76359 21547 ft 438 kts 206°
2026-04-29 13:57 19.21029 109.75029 21279 ft 434 kts 207°
2026-04-29 13:57 19.18306 109.73710 20840 ft 428 kts 207°
2026-04-29 13:57 19.15613 109.72406 20330 ft 424 kts 207°
2026-04-29 13:58 19.12950 109.71120 19834 ft 420 kts 207°
2026-04-29 13:58 19.10314 109.69847 19312 ft 418 kts 207°
2026-04-29 13:58 19.07650 109.68563 18786 ft 415 kts 207°
2026-04-29 13:58 19.05062 109.67316 18264 ft 413 kts 207°
2026-04-29 13:59 19.02453 109.66059 17689 ft 410 kts 207°
2026-04-29 13:59 18.99864 109.64812 17163 ft 406 kts 207°
2026-04-29 13:59 18.97311 109.63585 16636 ft 402 kts 207°
2026-04-29 13:59 18.94769 109.62363 16123 ft 399 kts 207°
2026-04-29 14:00 18.92248 109.61152 15583 ft 396 kts 207°
2026-04-29 14:00 18.89747 109.59950 15075 ft 394 kts 207°
2026-04-29 14:00 18.87257 109.58753 14550 ft 392 kts 207°
2026-04-29 14:00 18.84807 109.57576 14019 ft 389 kts 207°
2026-04-29 14:01 18.82346 109.56396 13479 ft 387 kts 206°
2026-04-29 14:01 18.79872 109.55209 12930 ft 384 kts 207°
2026-04-29 14:01 18.77491 109.54067 12415 ft 380 kts 206°
2026-04-29 14:01 18.75089 109.52918 11894 ft 377 kts 206°
2026-04-29 14:02 18.72722 109.51791 11640 ft 366 kts 206°
2026-04-29 14:02 18.70458 109.50705 11530 ft 351 kts 206°
2026-04-29 14:02 18.68269 109.49654 11424 ft 337 kts 207°
2026-04-29 14:02 18.66174 109.48648 11324 ft 324 kts 207°
2026-04-29 14:03 18.64161 109.47682 11218 ft 311 kts 207°
2026-04-29 14:03 18.62217 109.46751 11093 ft 301 kts 207°
2026-04-29 14:03 18.60351 109.45855 10957 ft 290 kts 207°
2026-04-29 14:03 18.58537 109.44985 10681 ft 285 kts 207°
2026-04-29 14:04 18.56736 109.44122 10339 ft 283 kts 207°
2026-04-29 14:04 18.54948 109.43265 10039 ft 281 kts 207°
2026-04-29 14:04 18.53158 109.42407 9712 ft 286 kts 206°
2026-04-29 14:04 18.51333 109.41531 9378 ft 290 kts 206°
2026-04-29 14:05 18.49506 109.40615 9062 ft 289 kts 211°
2026-04-29 14:05 18.47978 109.39292 8742 ft 284 kts 230°
2026-04-29 14:05 18.46735 109.37682 8428 ft 282 kts 233°
2026-04-29 14:05 18.45515 109.36065 8123 ft 282 kts 232°
2026-04-29 14:06 18.44284 109.34457 7816 ft 282 kts 232°
2026-04-29 14:06 18.43050 109.32852 7485 ft 281 kts 232°
2026-04-29 14:06 18.41821 109.31256 7187 ft 280 kts 232°
2026-04-29 14:06 18.40595 109.29668 6877 ft 279 kts 232°
2026-04-29 14:07 18.39382 109.28080 6558 ft 278 kts 233°
2026-04-29 14:07 18.38487 109.26298 6241 ft 275 kts 256°
2026-04-29 14:07 18.38162 109.24323 5928 ft 274 kts 263°
2026-04-29 14:07 18.37934 109.22356 5756 ft 265 kts 263°
2026-04-29 14:08 18.37704 109.20496 5644 ft 254 kts 262°
2026-04-29 14:08 18.37329 109.18692 5491 ft 244 kts 248°
2026-04-29 14:08 18.36342 109.17319 5254 ft 240 kts 216°
2026-04-29 14:08 18.34813 109.16673 4962 ft 241 kts 188°
2026-04-29 14:09 18.33252 109.15909 3428 ft 279 kts 229°
2026-04-29 14:09 18.31978 109.14237 2698 ft 294 kts 229°
2026-04-29 14:09 18.30330 109.13113 2805 ft 240 kts 182°
2026-04-29 14:09 18.29041 109.13041 4541 ft 170 kts 183°
2026-04-29 14:10 18.27691 109.12972 4260 ft 216 kts 185°
2026-04-29 14:10 18.26150 109.13348 3973 ft 240 kts 150°
2026-04-29 14:10 18.24842 109.14492 3706 ft 250 kts 138°
2026-04-29 14:10 18.23721 109.15981 3411 ft 270 kts 116°
2026-04-29 14:11 18.23380 109.17910 3154 ft 270 kts 84°
2026-04-29 14:11 18.24058 109.19682 3078 ft 263 kts 51°
2026-04-29 14:11 18.25534 109.20782 3076 ft 264 kts 19°
2026-04-29 14:11 18.27345 109.20882 3075 ft 265 kts 347°
2026-04-29 14:12 18.29012 109.20055 3079 ft 266 kts 329°
2026-04-29 14:12 18.30615 109.19089 3074 ft 266 kts 334°
2026-04-29 14:12 18.32298 109.18279 3071 ft 263 kts 339°
2026-04-29 14:12 18.33910 109.17571 3124 ft 244 kts 335°
2026-04-29 14:13 18.35180 109.16538 3493 ft 221 kts 311°
2026-04-29 14:13 18.35825 109.15082 3577 ft 236 kts 278°
2026-04-29 14:13 18.35530 109.13274 3519 ft 266 kts 244°
2026-04-29 14:13 18.34294 109.11813 3448 ft 273 kts 212°
2026-04-29 14:14 18.32498 109.11232 3399 ft 272 kts 181°
2026-04-29 14:14 18.30691 109.11701 3284 ft 270 kts 150°
2026-04-29 14:14 18.29393 109.13079 3164 ft 267 kts 118°
2026-04-29 14:14 18.28847 109.14932 3092 ft 265 kts 102°
2026-04-29 14:15 18.28106 109.16692 3075 ft 266 kts 131°
2026-04-29 14:15 18.26602 109.17762 3083 ft 264 kts 159°
2026-04-29 14:15 18.24979 109.18638 3060 ft 268 kts 141°
2026-04-29 14:15 18.23844 109.20168 3073 ft 264 kts 115°
2026-04-29 14:16 18.23427 109.21991 3074 ft 245 kts 91°
2026-04-29 14:16 18.23676 109.23662 3080 ft 227 kts 70°
2026-04-29 14:16 18.24419 109.25048 3085 ft 209 kts 50°
2026-04-29 14:16 18.25461 109.26012 3156 ft 196 kts 34°
2026-04-29 14:17 18.26647 109.26739 3100 ft 199 kts 30°
2026-04-29 14:17 18.27824 109.27442 3079 ft 187 kts 34°
2026-04-29 14:17 18.28562 109.28471 3093 ft 175 kts 67°
2026-04-29 14:17 18.28862 109.29711 3085 ft 177 kts 88°
2026-04-29 14:18 18.28898 109.31015 3077 ft 179 kts 88°
2026-04-29 14:18 18.29024 109.32311 3074 ft 178 kts 82°
2026-04-29 14:18 18.29228 109.33607 3079 ft 178 kts 81°
2026-04-29 14:18 18.29429 109.34860 3077 ft 169 kts 82°
2026-04-29 14:19 18.29600 109.36062 3081 ft 165 kts 82°
2026-04-29 14:19 18.29760 109.37262 3079 ft 166 kts 83°
2026-04-29 14:19 18.29922 109.38466 3075 ft 166 kts 82°
2026-04-29 14:19 18.30086 109.39701 3102 ft 184 kts 83°
2026-04-29 14:20 18.30319 109.41143 3060 ft 211 kts 77°
2026-04-29 14:20 18.30562 109.42695 3048 ft 218 kts 89°
2026-04-29 14:20 18.30157 109.44206 3035 ft 211 kts 124°
2026-04-29 14:20 18.29427 109.45465 3681 ft 194 kts 123°
2026-04-29 14:21 18.28422 109.46243 4304 ft 177 kts 176°
2026-04-29 14:21 18.27369 109.45875 5056 ft 141 kts 210°
2026-04-29 14:21 18.26759 109.45307 5772 ft 118 kts 248°
2026-04-29 14:21 18.26713 109.44573 6093 ft 113 kts 287°
2026-04-29 14:22 18.27337 109.43901 5887 ft 172 kts 344°
2026-04-29 14:22 18.28478 109.43404 6038 ft 180 kts 321°
2026-04-29 14:22 18.29513 109.42502 5942 ft 206 kts 325°
2026-04-29 14:22 18.30606 109.41445 5706 ft 221 kts 302°
2026-04-29 14:23 18.30955 109.39892 5471 ft 220 kts 269°
2026-04-29 14:23 18.30927 109.38324 5534 ft 210 kts 268°
2026-04-29 14:23 18.30918 109.36762 5689 ft 222 kts 276°
2026-04-29 14:23 18.31514 109.35125 5441 ft 258 kts 298°
2026-04-29 14:24 18.32342 109.33374 5146 ft 272 kts 293°
2026-04-29 14:24 18.32950 109.31522 4882 ft 270 kts 282°
2026-04-29 14:24 18.33065 109.29576 4624 ft 266 kts 262°
2026-04-29 14:24 18.32451 109.27760 4393 ft 263 kts 243°
2026-04-29 14:25 18.31536 109.26087 4150 ft 264 kts 237°
2026-04-29 14:25 18.30460 109.24525 3888 ft 264 kts 231°
2026-04-29 14:25 18.29233 109.23088 3634 ft 263 kts 225°
2026-04-29 14:25 18.27877 109.21807 3520 ft 262 kts 219°
2026-04-29 14:26 18.26401 109.20683 3389 ft 262 kts 213°
2026-04-29 14:26 18.24820 109.19727 3262 ft 262 kts 207°
2026-04-29 14:26 18.23176 109.18959 3146 ft 261 kts 201°
2026-04-29 14:26 18.21451 109.18374 3111 ft 261 kts 195°
2026-04-29 14:27 18.19660 109.17925 3107 ft 261 kts 193°
2026-04-29 14:27 18.17874 109.17818 3108 ft 262 kts 171°
2026-04-29 14:27 18.16271 109.18626 3251 ft 255 kts 129°
2026-04-29 14:28 18.16527 109.21179 6098 ft 155 kts 20°
2026-04-29 14:28 18.17608 109.21082 6443 ft 177 kts 323°
2026-04-29 14:28 18.18488 109.20186 7113 ft 167 kts 334°
2026-04-29 14:28 18.19580 109.20213 7773 ft 169 kts 33°
2026-04-29 14:29 18.20500 109.21219 7841 ft 211 kts 55°
2026-04-29 14:29 18.21767 109.22139 7708 ft 226 kts
2026-04-29 14:29 18.23261 109.22620 7259 ft 226 kts 37°
2026-04-29 14:29 18.24326 109.23608 7339 ft 197 kts 25°
2026-04-29 14:30 18.25549 109.24171 7097 ft 188 kts 36°
2026-04-29 14:30 18.26355 109.25291 6305 ft 206 kts 69°
2026-04-29 14:30 18.27373 109.26286 5448 ft 214 kts 13°
2026-04-29 14:30 18.28507 109.27186 4874 ft 209 kts 61°
2026-04-29 14:31 18.28863 109.28721 4082 ft 221 kts 79°
2026-04-29 14:31 18.29092 109.30314 3690 ft 213 kts 81°
2026-04-29 14:31 18.29321 109.31783 3465 ft 197 kts 80°
2026-04-29 14:31 18.29478 109.33232 2557 ft 210 kts 86°
2026-04-29 14:32 18.29636 109.34873 1478 ft 235 kts 83°
2026-04-29 14:32 18.29783 109.36584 808 ft 236 kts 84°
2026-04-29 14:32 18.29959 109.38278 304 ft 229 kts 84°
2026-04-29 14:32 18.30086 109.39837 126 ft 209 kts 85°
2026-04-29 14:33 18.30267 109.40764 88 ft 176 kts 76°
2026-04-29 14:33 18.30528 109.42273 99 ft 135 kts 81°
2026-04-29 14:33 18.30624 109.42864 103 ft 111 kts 80°
2026-04-29 14:33 18.30755 109.43588 85 ft 6 kts 70°
2026-04-29 14:34 18.30755 109.43584 86 ft 1 kts 72°
2026-04-29 14:34 18.30754 109.43583 86 ft 0 kts 71°